QTR216 DTTA-FIMP

Flight info

Callsign QTR216
Flight time N/A
Altitude 33000
Route GIBLI2C GIBLI A411 VAXAL UA411 MON UP868 NIGAT DCT ELIMO M732 DITAR/N0487F350 R2 ATMUL N314 TIKAT G300 MAV UM665 TULAP/N0490F370 UM665 ITLOX/N0491F360 UM665 ANKOR/N0488F370 UA665 UVDUK/N0487F380 UL441 IXEBU/N0489F370 UN304 PONIR UA400 RASMA RASMA2F
Aircraft B77W/H-SDE1E2E3FGHIJ2J3J4J5M1RWXY/LB1D1

Departure

Time N/A
Airport Tunis Carthage International Airport (DTTA)

Arrival

Time 2026-05-06 20:02
Airport Sir Seewoosagur Ramgoolam International Airport (FIMP)
Time Latitude Longitude Altitude Speed Heading
2026-05-06 15:34 6.63911 39.68567 35029 ft 497 kts 140°
2026-05-06 15:34 6.61224 39.70747 35032 ft 496 kts 140°
2026-05-06 15:34 6.55851 39.75106 35033 ft 496 kts 140°
2026-05-06 15:35 6.50477 39.79465 34981 ft 496 kts 140°
2026-05-06 15:35 6.47932 39.81529 34979 ft 496 kts 140°
2026-05-06 15:36 6.45590 39.83428 34980 ft 496 kts 140°
2026-05-06 15:36 6.40291 39.87883 34932 ft 497 kts 137°
2026-05-06 15:37 6.35168 39.92570 34942 ft 499 kts 136°
2026-05-06 15:37 6.29997 39.97266 34930 ft 500 kts 137°
2026-05-06 15:38 6.24795 40.01923 34913 ft 502 kts 137°
2026-05-06 15:38 6.19495 40.06425 34906 ft 502 kts 140°
2026-05-06 15:39 6.13996 40.10754 34898 ft 502 kts 141°
2026-05-06 15:39 6.08487 40.15066 34895 ft 502 kts 141°
2026-05-06 15:40 6.02985 40.19405 34901 ft 502 kts 141°
2026-05-06 15:40 5.97504 40.23745 34892 ft 501 kts 141°
2026-05-06 15:41 5.92031 40.28079 34896 ft 500 kts 141°
2026-05-06 15:41 5.86586 40.32388 34881 ft 499 kts 141°
2026-05-06 15:42 5.81134 40.36701 34887 ft 498 kts 141°
2026-05-06 15:42 5.75684 40.41012 34884 ft 498 kts 141°
2026-05-06 15:43 5.70245 40.45312 34881 ft 497 kts 141°
2026-05-06 15:43 5.64809 40.49608 34879 ft 497 kts 140°
2026-05-06 15:44 5.59423 40.53865 34887 ft 497 kts 141°
2026-05-06 15:44 5.53987 40.58160 34878 ft 497 kts 141°
2026-05-06 15:45 5.48541 40.62462 34876 ft 498 kts 140°
2026-05-06 15:45 5.46216 40.64299 34880 ft 498 kts 140°
2026-05-06 15:46 5.43251 40.66640 34875 ft 498 kts 140°
2026-05-06 15:46 5.37804 40.70940 34878 ft 498 kts 141°
2026-05-06 15:47 5.32343 40.75251 34879 ft 498 kts 141°
2026-05-06 15:47 5.26891 40.79555 34879 ft 499 kts 141°
2026-05-06 15:48 5.21472 40.83831 34884 ft 498 kts 141°
2026-05-06 15:48 5.16039 40.88161 34893 ft 498 kts 140°
2026-05-06 15:49 5.10651 40.92518 34890 ft 497 kts 140°
2026-05-06 15:49 5.05267 40.96873 34892 ft 496 kts 140°
2026-05-06 15:50 4.99894 41.01210 34884 ft 495 kts 140°
2026-05-06 15:50 4.94522 41.05539 34883 ft 495 kts 140°
2026-05-06 15:51 4.89191 41.09834 34881 ft 494 kts 140°
2026-05-06 15:51 4.83823 41.14158 35043 ft 496 kts 140°
2026-05-06 15:52 4.81132 41.16326 35378 ft 494 kts 140°
2026-05-06 15:52 4.78462 41.18476 35740 ft 491 kts 140°
2026-05-06 15:52 4.75802 41.20618 36124 ft 489 kts 140°
2026-05-06 15:52 4.73147 41.22755 36477 ft 486 kts 140°
2026-05-06 15:53 4.70516 41.24873 36798 ft 485 kts 140°
2026-05-06 15:53 4.67878 41.26998 36821 ft 488 kts 140°
2026-05-06 15:53 4.62619 41.31232 36866 ft 487 kts 141°
2026-05-06 15:54 4.57343 41.35477 36875 ft 485 kts 141°
2026-05-06 15:54 4.52090 41.39705 36874 ft 483 kts 140°
2026-05-06 15:55 4.46852 41.43918 36857 ft 482 kts 140°
2026-05-06 15:55 4.44869 41.45513 36853 ft 481 kts 140°
2026-05-06 15:56 4.41846 41.47945 36849 ft 481 kts 140°
2026-05-06 15:56 4.36629 41.52140 36860 ft 481 kts 140°
2026-05-06 15:57 4.31412 41.56335 36857 ft 481 kts 140°
2026-05-06 15:57 4.26195 41.60529 36846 ft 481 kts 140°
2026-05-06 15:58 4.20999 41.64705 36847 ft 482 kts 141°
2026-05-06 15:58 4.15770 41.68908 36851 ft 482 kts 140°
2026-05-06 15:59 4.10531 41.73118 36845 ft 483 kts 141°
2026-05-06 15:59 4.05286 41.77332 36845 ft 484 kts 140°
2026-05-06 16:00 4.00034 41.81552 36841 ft 484 kts 141°
2026-05-06 16:00 3.94775 41.85773 36845 ft 484 kts 141°
2026-05-06 16:01 3.89236 41.89619 36837 ft 484 kts 146°
2026-05-06 16:01 3.83578 41.93278 36851 ft 484 kts 146°
2026-05-06 16:02 3.77927 41.96944 36849 ft 484 kts 146°
2026-05-06 16:02 3.72328 42.00604 36851 ft 483 kts 146°
2026-05-06 16:03 3.66699 42.04297 36858 ft 484 kts 147°
2026-05-06 16:03 3.61056 42.07999 36858 ft 484 kts 147°
2026-05-06 16:04 3.55418 42.11695 36860 ft 485 kts 147°
2026-05-06 16:04 3.49768 42.15398 36859 ft 485 kts 147°
2026-05-06 16:05 3.44140 42.19085 36857 ft 486 kts 147°
2026-05-06 16:05 3.42260 42.20317 36858 ft 486 kts 147°
2026-05-06 16:06 3.38470 42.22800 36858 ft 486 kts 147°
2026-05-06 16:06 3.32814 42.26505 36857 ft 486 kts 147°
2026-05-06 16:07 3.27155 42.30212 36860 ft 486 kts 147°
2026-05-06 16:07 3.21498 42.33917 36859 ft 485 kts 147°
2026-05-06 16:08 3.15848 42.37617 36860 ft 485 kts 147°
2026-05-06 16:08 3.10205 42.41312 36864 ft 485 kts 147°
2026-05-06 16:09 3.04598 42.44982 36862 ft 485 kts 147°
2026-05-06 16:09 2.98957 42.48674 36868 ft 484 kts 147°
2026-05-06 16:10 2.93307 42.52373 36872 ft 484 kts 147°
2026-05-06 16:10 2.87665 42.56064 36877 ft 485 kts 147°
2026-05-06 16:11 2.82023 42.59757 36874 ft 485 kts 147°
2026-05-06 16:11 2.76378 42.63450 36884 ft 485 kts 147°
2026-05-06 16:12 2.71685 42.66520 36886 ft 485 kts 147°
2026-05-06 16:12 2.66036 42.70215 36886 ft 485 kts 147°
2026-05-06 16:13 2.60395 42.73905 36890 ft 485 kts 147°
2026-05-06 16:13 2.54748 42.77599 36891 ft 484 kts 147°
2026-05-06 16:14 2.49110 42.81284 36890 ft 484 kts 147°
2026-05-06 16:14 2.43477 42.84967 36892 ft 483 kts 147°
2026-05-06 16:15 2.37849 42.88647 36896 ft 483 kts 147°
2026-05-06 16:15 2.35358 42.90276 36896 ft 483 kts 147°
2026-05-06 16:16 2.32257 42.92302 36895 ft 483 kts 147°
2026-05-06 16:16 2.26643 42.95972 36899 ft 483 kts 147°
2026-05-06 16:17 2.21016 42.99651 36903 ft 483 kts 147°
2026-05-06 16:17 2.15377 43.03337 36898 ft 484 kts 147°
2026-05-06 16:18 2.09743 43.07018 36897 ft 484 kts 147°
2026-05-06 16:18 2.04140 43.10681 36900 ft 484 kts 147°
2026-05-06 16:19 1.98503 43.14359 36895 ft 484 kts 147°
2026-05-06 16:19 1.92850 43.18017 36901 ft 483 kts 147°
2026-05-06 16:20 1.87200 43.21666 36891 ft 483 kts 147°
2026-05-06 16:20 1.81568 43.25307 36897 ft 481 kts 147°
2026-05-06 16:21 1.75955 43.28941 36889 ft 480 kts 147°
2026-05-06 16:21 1.70355 43.32567 36891 ft 479 kts 147°
2026-05-06 16:22 1.64771 43.36178 36881 ft 478 kts 147°
2026-05-06 16:22 1.59219 43.39773 36895 ft 478 kts 147°
2026-05-06 16:23 1.53624 43.43395 36896 ft 479 kts 147°
2026-05-06 16:23 1.48019 43.47020 36891 ft 480 kts 147°
2026-05-06 16:24 1.42399 43.50658 36895 ft 481 kts 147°
2026-05-06 16:24 1.36785 43.54291 36899 ft 481 kts 147°
2026-05-06 16:25 1.31169 43.57924 36890 ft 480 kts 147°
2026-05-06 16:25 1.28948 43.59332 36886 ft 480 kts 148°
2026-05-06 16:26 1.25356 43.61477 36893 ft 479 kts 149°
2026-05-06 16:26 1.19586 43.64809 36905 ft 478 kts 149°
2026-05-06 16:27 1.13843 43.68141 36895 ft 476 kts 149°
2026-05-06 16:27 1.08142 43.71483 36896 ft 474 kts 149°
2026-05-06 16:28 1.02454 43.74833 36902 ft 474 kts 149°
2026-05-06 16:28 0.96766 43.78183 36905 ft 475 kts 149°
2026-05-06 16:29 0.91072 43.81535 36907 ft 475 kts 149°
2026-05-06 16:29 0.85371 43.84889 36908 ft 475 kts 149°
2026-05-06 16:30 0.80630 43.87678 36896 ft 476 kts 149°
2026-05-06 16:30 0.73961 43.91603 36906 ft 477 kts 149°
2026-05-06 16:31 0.68276 43.94948 36904 ft 478 kts 149°
2026-05-06 16:31 0.62552 43.98316 36907 ft 477 kts 149°
2026-05-06 16:32 0.56827 44.01684 36910 ft 476 kts 148°
2026-05-06 16:32 0.51127 44.05037 36897 ft 475 kts 149°
2026-05-06 16:33 0.45427 44.08392 36905 ft 475 kts 149°
2026-05-06 16:34 0.36891 44.13415 36905 ft 474 kts 148°
2026-05-06 16:34 0.31201 44.16759 36899 ft 474 kts 149°
2026-05-06 16:35 0.25498 44.20063 36904 ft 474 kts 149°
2026-05-06 16:35 0.20712 44.22821 36911 ft 474 kts 149°
2026-05-06 16:36 0.19715 44.23396 36909 ft 474 kts 149°
2026-05-06 16:36 0.13984 44.26705 36905 ft 475 kts 149°
2026-05-06 16:37 0.08250 44.30020 36913 ft 476 kts 149°
2026-05-06 16:37 0.02508 44.33342 36897 ft 477 kts 149°
2026-05-06 16:38 -0.03242 44.36668 36897 ft 478 kts 149°
2026-05-06 16:38 -0.09005 44.40002 36912 ft 480 kts 149°
2026-05-06 16:39 -0.14802 44.43355 36910 ft 481 kts 149°
2026-05-06 16:39 -0.20600 44.46709 36913 ft 482 kts 148°
2026-05-06 16:40 -0.26398 44.50062 36900 ft 481 kts 149°
2026-05-06 16:40 -0.32156 44.53393 36910 ft 481 kts 149°
2026-05-06 16:41 -0.37945 44.56742 36912 ft 480 kts 148°
2026-05-06 16:41 -0.43714 44.60078 36909 ft 479 kts 148°
2026-05-06 16:42 -0.49474 44.63411 36903 ft 478 kts 148°
2026-05-06 16:42 -0.55228 44.66739 36910 ft 477 kts 149°
2026-05-06 16:43 -0.60982 44.70068 36910 ft 478 kts 148°
2026-05-06 16:43 -0.66744 44.73401 36914 ft 479 kts 148°
2026-05-06 16:44 -0.72522 44.76744 36913 ft 480 kts 149°
2026-05-06 16:44 -0.78280 44.80076 36918 ft 481 kts 149°
2026-05-06 16:45 -0.84076 44.83429 36913 ft 481 kts 149°
2026-05-06 16:45 -0.88653 44.86077 36917 ft 482 kts 148°
2026-05-06 16:46 -0.89997 44.86855 36916 ft 482 kts 149°
2026-05-06 16:46 -0.95803 44.90215 36916 ft 482 kts 149°
2026-05-06 16:47 -1.01608 44.93574 36914 ft 482 kts 148°
2026-05-06 16:47 -1.07368 44.96907 36915 ft 481 kts 148°
2026-05-06 16:48 -1.13168 45.00265 36916 ft 481 kts 148°
2026-05-06 16:48 -1.18949 45.03623 36915 ft 480 kts 148°
2026-05-06 16:49 -1.24668 45.07072 36916 ft 480 kts 148°
2026-05-06 16:49 -1.30360 45.10541 36919 ft 479 kts 147°
2026-05-06 16:50 -1.36061 45.14003 36917 ft 479 kts 148°
2026-05-06 16:50 -1.41763 45.17455 36917 ft 479 kts 148°
2026-05-06 16:51 -1.47473 45.20908 36917 ft 480 kts 148°
2026-05-06 16:51 -1.53191 45.24367 36923 ft 480 kts 148°
2026-05-06 16:52 -1.58870 45.27802 36922 ft 481 kts 148°
2026-05-06 16:52 -1.64591 45.31264 36921 ft 480 kts 148°
2026-05-06 16:53 -1.70313 45.34727 36918 ft 481 kts 148°
2026-05-06 16:53 -1.76020 45.38181 36923 ft 481 kts 148°
2026-05-06 16:54 -1.81763 45.41657 36921 ft 482 kts 147°
2026-05-06 16:54 -1.87508 45.45135 36920 ft 482 kts 148°
2026-05-06 16:55 -1.93249 45.48610 36924 ft 483 kts 147°
2026-05-06 16:55 -1.97488 45.51178 36920 ft 483 kts 148°
2026-05-06 16:56 -1.99158 45.52189 36924 ft 483 kts 148°
2026-05-06 16:56 -2.04896 45.55710 36921 ft 484 kts 147°
2026-05-06 16:57 -2.10570 45.59252 36921 ft 484 kts 147°
2026-05-06 16:57 -2.16282 45.62821 36917 ft 484 kts 147°
2026-05-06 16:58 -2.22011 45.66390 36918 ft 485 kts 147°
2026-05-06 16:58 -2.26782 45.69360 36921 ft 486 kts 147°
2026-05-06 16:59 -2.32520 45.72931 36924 ft 486 kts 147°
2026-05-06 16:59 -2.38274 45.76511 36927 ft 487 kts 147°
2026-05-06 17:00 -2.44029 45.80094 36919 ft 487 kts 147°
2026-05-06 17:00 -2.49779 45.83675 36923 ft 487 kts 147°
2026-05-06 17:01 -2.55532 45.87257 36924 ft 487 kts 147°
2026-05-06 17:01 -2.61287 45.90840 36921 ft 487 kts 147°
2026-05-06 17:02 -2.67034 45.94419 36923 ft 486 kts 147°
2026-05-06 17:02 -2.72775 45.97995 36920 ft 486 kts 147°
2026-05-06 17:03 -2.78514 46.01569 36918 ft 486 kts 147°
2026-05-06 17:03 -2.84223 46.05127 36922 ft 486 kts 147°
2026-05-06 17:04 -2.89978 46.08711 36922 ft 487 kts 147°
2026-05-06 17:04 -2.95727 46.12295 36921 ft 487 kts 147°
2026-05-06 17:05 -3.01488 46.15885 36926 ft 488 kts 147°
2026-05-06 17:05 -3.06415 46.18956 36925 ft 488 kts 147°
2026-05-06 17:06 -3.07363 46.19547 36924 ft 488 kts 147°
2026-05-06 17:06 -3.13130 46.23142 36922 ft 488 kts 147°
2026-05-06 17:07 -3.18856 46.26711 36919 ft 488 kts 146°
2026-05-06 17:07 -3.24613 46.30302 36919 ft 488 kts 147°
2026-05-06 17:08 -3.30375 46.33895 36921 ft 487 kts 146°
2026-05-06 17:08 -3.36137 46.37489 36916 ft 487 kts 146°
2026-05-06 17:09 -3.41888 46.41076 36918 ft 487 kts 146°
2026-05-06 17:09 -3.47633 46.44660 36921 ft 486 kts 146°
2026-05-06 17:10 -3.53375 46.48244 36922 ft 486 kts 147°
2026-05-06 17:10 -3.59118 46.51828 36924 ft 486 kts 147°
2026-05-06 17:11 -3.64865 46.55415 36918 ft 487 kts 146°
2026-05-06 17:11 -3.70576 46.58981 36919 ft 487 kts 147°
2026-05-06 17:12 -3.76337 46.62578 36919 ft 488 kts 147°
2026-05-06 17:12 -3.82100 46.66176 36919 ft 489 kts 146°
2026-05-06 17:13 -3.87877 46.69784 36919 ft 489 kts 146°
2026-05-06 17:13 -3.93659 46.73396 36918 ft 490 kts 146°
2026-05-06 17:14 -3.99444 46.77011 36921 ft 490 kts 147°
2026-05-06 17:14 -4.05226 46.80624 36921 ft 490 kts 146°
2026-05-06 17:15 -4.10975 46.84218 36916 ft 490 kts 147°
2026-05-06 17:15 -4.15634 46.87131 36918 ft 490 kts 146°
2026-05-06 17:16 -4.16861 46.87898 36923 ft 490 kts 146°
2026-05-06 17:16 -4.22640 46.91512 36917 ft 490 kts 146°
2026-05-06 17:17 -4.28424 46.95129 36921 ft 490 kts 146°
2026-05-06 17:17 -4.34211 46.98751 36923 ft 490 kts 146°
2026-05-06 17:18 -4.39994 47.02372 36918 ft 490 kts 146°
2026-05-06 17:18 -4.45787 47.06000 36921 ft 490 kts 147°
2026-05-06 17:19 -4.51578 47.09626 36919 ft 491 kts 146°
2026-05-06 17:19 -4.57369 47.13255 36922 ft 491 kts 146°
2026-05-06 17:20 -4.63166 47.16887 36920 ft 491 kts 146°
2026-05-06 17:20 -4.68924 47.20495 36922 ft 492 kts 146°
2026-05-06 17:21 -4.74734 47.24137 36916 ft 492 kts 146°
2026-05-06 17:21 -4.80540 47.27778 36917 ft 492 kts 147°
2026-05-06 17:22 -4.86353 47.31425 36930 ft 493 kts 147°
2026-05-06 17:22 -4.92172 47.35072 36920 ft 494 kts 146°
2026-05-06 17:23 -4.97996 47.38727 36930 ft 494 kts 147°
2026-05-06 17:23 -5.03827 47.42385 36917 ft 495 kts 147°
2026-05-06 17:24 -5.09659 47.46045 36926 ft 495 kts 147°
2026-05-06 17:24 -5.15498 47.49710 36916 ft 495 kts 147°
2026-05-06 17:25 -5.21302 47.53355 36929 ft 495 kts 147°
2026-05-06 17:25 -5.25724 47.56132 36923 ft 495 kts 147°
2026-05-06 17:26 -5.27230 47.57078 36918 ft 495 kts 147°
2026-05-06 17:26 -5.33082 47.60754 36919 ft 496 kts 146°
2026-05-06 17:27 -5.38930 47.64428 36923 ft 497 kts 146°
2026-05-06 17:27 -5.44792 47.68113 36928 ft 497 kts 147°
2026-05-06 17:28 -5.50654 47.71797 36925 ft 497 kts 147°
2026-05-06 17:28 -5.56521 47.75486 36924 ft 497 kts 147°
2026-05-06 17:29 -5.62379 47.79170 36927 ft 496 kts 147°
2026-05-06 17:29 -5.68229 47.82849 36916 ft 496 kts 147°
2026-05-06 17:30 -5.74039 47.86504 36919 ft 496 kts 147°
2026-05-06 17:30 -5.79897 47.90192 36932 ft 497 kts 147°
2026-05-06 17:31 -5.85766 47.93886 36928 ft 498 kts 147°
2026-05-06 17:31 -5.91647 47.97590 36932 ft 499 kts 147°
2026-05-06 17:32 -5.97542 48.01303 36922 ft 501 kts 147°
2026-05-06 17:32 -6.03445 48.05023 36932 ft 500 kts 147°
2026-05-06 17:33 -6.09339 48.08736 36916 ft 499 kts 147°
2026-05-06 17:33 -6.15211 48.12437 36928 ft 498 kts 147°
2026-05-06 17:34 -6.21030 48.16106 36931 ft 496 kts 147°
2026-05-06 17:34 -6.26869 48.19788 36920 ft 495 kts 147°
2026-05-06 17:35 -6.32699 48.23466 36939 ft 495 kts 147°
2026-05-06 17:35 -6.36814 48.26063 36942 ft 495 kts 147°
2026-05-06 17:36 -6.41561 48.29058 36930 ft 496 kts 147°
2026-05-06 17:36 -6.47404 48.32747 36937 ft 496 kts 147°
2026-05-06 17:37 -6.53265 48.36448 36937 ft 497 kts 147°
2026-05-06 17:37 -6.59126 48.40150 36934 ft 497 kts 148°
2026-05-06 17:38 -6.64994 48.43857 36930 ft 497 kts 148°
2026-05-06 17:38 -6.70848 48.47556 36934 ft 496 kts 147°
2026-05-06 17:39 -6.76653 48.51227 36942 ft 496 kts 147°
2026-05-06 17:39 -6.82487 48.54916 36932 ft 495 kts 147°
2026-05-06 17:40 -6.88315 48.58604 36936 ft 495 kts 147°
2026-05-06 17:40 -6.94147 48.62294 36939 ft 496 kts 147°
2026-05-06 17:41 -6.99995 48.65995 36938 ft 498 kts 147°
2026-05-06 17:41 -7.05867 48.69715 36950 ft 499 kts 147°
2026-05-06 17:42 -7.11752 48.73444 36951 ft 500 kts 147°
2026-05-06 17:42 -7.17646 48.77183 36940 ft 501 kts 148°
2026-05-06 17:43 -7.23531 48.80916 36949 ft 499 kts 148°
2026-05-06 17:43 -7.29402 48.84641 36934 ft 498 kts 148°
2026-05-06 17:44 -7.35212 48.88329 36933 ft 497 kts 148°
2026-05-06 17:44 -7.41053 48.92038 36945 ft 496 kts 148°
2026-05-06 17:45 -7.46888 48.95744 36948 ft 496 kts 148°
2026-05-06 17:45 -7.47798 48.96323 36950 ft 496 kts 148°
2026-05-06 17:46 -7.51862 48.98904 36945 ft 496 kts 148°
2026-05-06 17:46 -7.57696 49.02612 36954 ft 497 kts 148°
2026-05-06 17:47 -7.63550 49.06334 36947 ft 497 kts 148°
2026-05-06 17:47 -7.69399 49.10054 36950 ft 497 kts 148°
2026-05-06 17:48 -7.75249 49.13776 36952 ft 496 kts 148°
2026-05-06 17:48 -7.81097 49.17497 36937 ft 497 kts 148°
2026-05-06 17:49 -7.86947 49.21222 36952 ft 497 kts 148°
2026-05-06 17:49 -7.92759 49.24923 36950 ft 497 kts 148°
2026-05-06 17:50 -7.98620 49.28656 36950 ft 498 kts 148°
2026-05-06 17:50 -8.04483 49.32393 36953 ft 499 kts 148°
2026-05-06 17:51 -8.10357 49.36137 36951 ft 499 kts 148°
2026-05-06 17:51 -8.16235 49.39886 36952 ft 500 kts 148°
2026-05-06 17:52 -8.22113 49.43636 36951 ft 500 kts 148°
2026-05-06 17:52 -8.27988 49.47385 36952 ft 499 kts 148°
2026-05-06 17:53 -8.33855 49.51130 36953 ft 499 kts 148°
2026-05-06 17:53 -8.39720 49.54876 36953 ft 498 kts 148°
2026-05-06 17:54 -8.45546 49.58598 36942 ft 499 kts 148°
2026-05-06 17:54 -8.51417 49.62350 36957 ft 499 kts 148°
2026-05-06 17:55 -8.57286 49.66102 36955 ft 498 kts 148°
2026-05-06 17:55 -8.58885 49.67124 36950 ft 499 kts 148°
2026-05-06 17:56 -8.63206 49.69888 36955 ft 498 kts 148°
2026-05-06 17:56 -8.69054 49.73630 36952 ft 497 kts 148°
2026-05-06 17:57 -8.74900 49.77371 36955 ft 497 kts 148°
2026-05-06 17:57 -8.80746 49.81114 36960 ft 497 kts 148°
2026-05-06 17:58 -8.86589 49.84857 36946 ft 498 kts 148°
2026-05-06 17:58 -8.92441 49.88607 36954 ft 498 kts 148°
2026-05-06 17:59 -8.98303 49.92364 36961 ft 499 kts 148°
2026-05-06 17:59 -9.04130 49.96101 36949 ft 500 kts 148°
2026-05-06 18:00 -9.10011 49.99874 36963 ft 501 kts 148°
2026-05-06 18:00 -9.15892 50.03648 36962 ft 500 kts 148°
2026-05-06 18:01 -9.21773 50.07424 36955 ft 500 kts 148°
2026-05-06 18:01 -9.27648 50.11197 36963 ft 500 kts 148°
2026-05-06 18:02 -9.33522 50.14971 36952 ft 501 kts 148°
2026-05-06 18:02 -9.39416 50.18761 36967 ft 502 kts 148°
2026-05-06 18:03 -9.45321 50.22558 36968 ft 502 kts 148°
2026-05-06 18:03 -9.51228 50.26358 36963 ft 503 kts 148°
2026-05-06 18:04 -9.57094 50.30134 36966 ft 502 kts 147°
2026-05-06 18:04 -9.62979 50.33922 36956 ft 501 kts 147°
2026-05-06 18:05 -9.68871 50.37718 36967 ft 500 kts 147°
2026-05-06 18:05 -9.70166 50.38552 36970 ft 500 kts 147°
2026-05-06 18:06 -9.74845 50.41568 36958 ft 500 kts 147°
2026-05-06 18:06 -9.80729 50.45362 36961 ft 501 kts 147°
2026-05-06 18:07 -9.86616 50.49159 36972 ft 502 kts 147°
2026-05-06 18:07 -9.92468 50.52935 36960 ft 503 kts 147°
2026-05-06 18:08 -9.98364 50.56742 36968 ft 502 kts 147°
2026-05-06 18:08 -10.04256 50.60543 36955 ft 501 kts 147°
2026-05-06 18:09 -10.10143 50.64335 36961 ft 501 kts 147°
2026-05-06 18:09 -10.16033 50.68131 36956 ft 501 kts 147°
2026-05-06 18:10 -10.21926 50.71933 36966 ft 502 kts 147°
2026-05-06 18:10 -10.27825 50.75741 36975 ft 502 kts 148°
2026-05-06 18:11 -10.33727 50.79553 36967 ft 503 kts 148°
2026-05-06 18:11 -10.39598 50.83346 36973 ft 503 kts 148°
2026-05-06 18:12 -10.45505 50.87163 36961 ft 503 kts 148°
2026-05-06 18:12 -10.51404 50.90979 36965 ft 502 kts 148°
2026-05-06 18:13 -10.57296 50.94791 36965 ft 502 kts 148°
2026-05-06 18:13 -10.63189 50.98605 36971 ft 502 kts 148°
2026-05-06 18:14 -10.69085 51.02423 36969 ft 502 kts 148°
2026-05-06 18:14 -10.74983 51.06244 36969 ft 502 kts 148°
2026-05-06 18:15 -10.80883 51.10068 36970 ft 503 kts 148°
2026-05-06 18:15 -10.81871 51.10709 36970 ft 503 kts 148°
2026-05-06 18:16 -10.86857 51.13943 36964 ft 503 kts 148°
2026-05-06 18:16 -10.92755 51.17769 36969 ft 503 kts 148°
2026-05-06 18:17 -10.98655 51.21599 36966 ft 503 kts 148°
2026-05-06 18:17 -11.04554 51.25430 36968 ft 503 kts 148°
2026-05-06 18:18 -11.10420 51.29241 36966 ft 503 kts 148°
2026-05-06 18:18 -11.16321 51.33077 36968 ft 503 kts 148°
2026-05-06 18:19 -11.22222 51.36915 36969 ft 503 kts 148°
2026-05-06 18:19 -11.28123 51.40755 36969 ft 503 kts 148°
2026-05-06 18:20 -11.34019 51.44594 36968 ft 503 kts 148°
2026-05-06 18:20 -11.39915 51.48434 36969 ft 503 kts 148°
2026-05-06 18:21 -11.45807 51.52274 36971 ft 503 kts 148°
2026-05-06 18:21 -11.51703 51.56119 36969 ft 503 kts 148°
2026-05-06 18:22 -11.57594 51.59963 36970 ft 503 kts 149°
2026-05-06 18:22 -11.63619 51.63506 36959 ft 496 kts 163°
2026-05-06 18:23 -11.66978 51.64176 36973 ft 491 kts 180°
2026-05-06 18:23 -11.70358 51.63927 36982 ft 487 kts 193°
2026-05-06 18:23 -11.73593 51.62942 36964 ft 484 kts 207°
2026-05-06 18:23 -11.76536 51.61325 36983 ft 480 kts 212°
2026-05-06 18:24 -11.82352 51.57887 36987 ft 484 kts 212°
2026-05-06 18:24 -11.88235 51.54488 36975 ft 487 kts 211°
2026-05-06 18:25 -11.94163 51.51137 36980 ft 488 kts 211°
2026-05-06 18:25 -11.94845 51.50753 36978 ft 488 kts 211°
2026-05-06 18:26 -12.00168 51.47750 36974 ft 488 kts 211°
2026-05-06 18:26 -12.06108 51.44392 36974 ft 487 kts 211°
2026-05-06 18:27 -12.09170 51.42927 36964 ft 487 kts 198°
2026-05-06 18:27 -12.12516 51.42370 36986 ft 491 kts 182°
2026-05-06 18:27 -12.15920 51.42704 36978 ft 495 kts 168°
2026-05-06 18:27 -12.19159 51.43899 36983 ft 495 kts 158°
2026-05-06 18:28 -12.25434 51.46833 36983 ft 497 kts 157°
2026-05-06 18:28 -12.31765 51.49770 36988 ft 499 kts 158°
2026-05-06 18:29 -12.38129 51.52649 36992 ft 501 kts 158°
2026-05-06 18:29 -12.44485 51.55493 36984 ft 502 kts 158°
2026-05-06 18:30 -12.50884 51.58355 36986 ft 502 kts 158°
2026-05-06 18:30 -12.57296 51.61228 36983 ft 502 kts 158°
2026-05-06 18:31 -12.63691 51.64097 36985 ft 502 kts 158°
2026-05-06 18:31 -12.70076 51.66964 36989 ft 501 kts 158°
2026-05-06 18:32 -12.76459 51.69831 36984 ft 500 kts 158°
2026-05-06 18:32 -12.82821 51.72691 36986 ft 499 kts 158°
2026-05-06 18:33 -12.88105 51.75067 36988 ft 499 kts 158°
2026-05-06 18:33 -12.94465 51.77928 36988 ft 498 kts 158°
2026-05-06 18:34 -13.00806 51.80782 36992 ft 498 kts 158°
2026-05-06 18:34 -13.07160 51.83644 36985 ft 498 kts 158°
2026-05-06 18:35 -13.13502 51.86502 36989 ft 498 kts 158°
2026-05-06 18:35 -13.14965 51.87161 36990 ft 498 kts 158°
2026-05-06 18:36 -13.19947 51.89408 36989 ft 498 kts 158°
2026-05-06 18:36 -13.26260 51.92256 36989 ft 499 kts 158°
2026-05-06 18:37 -13.32610 51.95123 37001 ft 498 kts 158°
2026-05-06 18:37 -13.38960 51.97992 36992 ft 498 kts 158°
2026-05-06 18:38 -13.45315 52.00864 36991 ft 497 kts 158°
2026-05-06 18:38 -13.51646 52.03726 36994 ft 497 kts 158°
2026-05-06 18:39 -13.57976 52.06590 36992 ft 497 kts 158°
2026-05-06 18:40 -13.67427 52.10871 36999 ft 496 kts 158°
2026-05-06 18:40 -13.73749 52.13737 37001 ft 496 kts 158°
2026-05-06 18:41 -13.80058 52.16598 36995 ft 495 kts 158°
2026-05-06 18:41 -13.86372 52.19464 37001 ft 495 kts 158°
2026-05-06 18:42 -13.92668 52.22322 37005 ft 495 kts 158°
2026-05-06 18:42 -13.98964 52.25183 36999 ft 494 kts 158°
2026-05-06 18:43 -14.05249 52.28041 36999 ft 493 kts 158°
2026-05-06 18:43 -14.11526 52.30896 37000 ft 493 kts 158°
2026-05-06 18:44 -14.17804 52.33754 37006 ft 493 kts 158°
2026-05-06 18:44 -14.24077 52.36611 37019 ft 492 kts 158°
2026-05-06 18:45 -14.30295 52.39445 37003 ft 491 kts 158°
2026-05-06 18:45 -14.34557 52.41388 37002 ft 490 kts 158°
2026-05-06 18:46 -14.36635 52.42337 37001 ft 489 kts 158°
2026-05-06 18:46 -14.42845 52.45170 37003 ft 488 kts 158°
2026-05-06 18:47 -14.49051 52.48003 37010 ft 487 kts 158°
2026-05-06 18:47 -14.55241 52.50831 37008 ft 486 kts 158°
2026-05-06 18:48 -14.61437 52.53664 37015 ft 487 kts 158°
2026-05-06 18:48 -14.67602 52.56483 37013 ft 488 kts 158°
2026-05-06 18:49 -14.73826 52.59332 37012 ft 489 kts 158°
2026-05-06 18:49 -14.80057 52.62186 37012 ft 490 kts 158°
2026-05-06 18:50 -14.86297 52.65045 37025 ft 490 kts 157°
2026-05-06 18:50 -14.92528 52.67903 37009 ft 488 kts 158°
2026-05-06 18:51 -14.98717 52.70744 37006 ft 485 kts 158°
2026-05-06 18:51 -15.04870 52.73569 37004 ft 483 kts 157°
2026-05-06 18:52 -15.10971 52.76372 37015 ft 481 kts 158°
2026-05-06 18:52 -15.17084 52.79182 37021 ft 481 kts 158°
2026-05-06 18:53 -15.23165 52.81979 37021 ft 481 kts 157°
2026-05-06 18:53 -15.29287 52.84797 37019 ft 482 kts 158°
2026-05-06 18:54 -15.35421 52.87623 37014 ft 482 kts 157°
2026-05-06 18:54 -15.41538 52.90442 37017 ft 482 kts 157°
2026-05-06 18:55 -15.47675 52.93273 37025 ft 482 kts 157°
2026-05-06 18:55 -15.51558 52.95065 37026 ft 482 kts 157°
2026-05-06 18:56 -15.53766 52.96084 37021 ft 482 kts 157°
2026-05-06 18:56 -15.59892 52.98913 37017 ft 481 kts 157°
2026-05-06 18:57 -15.65958 53.01717 37021 ft 480 kts 157°
2026-05-06 18:57 -15.72106 53.04559 37022 ft 480 kts 157°
2026-05-06 18:58 -15.78169 53.07364 37027 ft 480 kts 157°
2026-05-06 18:58 -15.84307 53.10207 37028 ft 480 kts 157°
2026-05-06 18:59 -15.90389 53.13025 37020 ft 479 kts 157°
2026-05-06 18:59 -15.96438 53.15830 37026 ft 479 kts 157°
2026-05-06 19:00 -16.02537 53.18660 37031 ft 479 kts 157°
2026-05-06 19:00 -16.08624 53.21486 37037 ft 479 kts 157°
2026-05-06 19:01 -16.14708 53.24312 37032 ft 479 kts 156°
2026-05-06 19:01 -16.20794 53.27142 37036 ft 478 kts 156°
2026-05-06 19:02 -16.26823 53.29947 37029 ft 478 kts 156°
2026-05-06 19:02 -16.32895 53.32774 37025 ft 478 kts 156°
2026-05-06 19:03 -16.38951 53.35596 37034 ft 478 kts 156°
2026-05-06 19:03 -16.45013 53.38418 37029 ft 477 kts 156°
2026-05-06 19:04 -16.51076 53.41241 37030 ft 477 kts 156°
2026-05-06 19:04 -16.57140 53.44066 37035 ft 477 kts 156°
2026-05-06 19:05 -16.63193 53.46889 37033 ft 476 kts 156°
2026-05-06 19:05 -16.66714 53.48533 37032 ft 476 kts 156°
2026-05-06 19:06 -16.69431 53.49801 37027 ft 477 kts 156°
2026-05-06 19:06 -16.75484 53.52628 37041 ft 476 kts 156°
2026-05-06 19:07 -16.81528 53.55454 37035 ft 476 kts 156°
2026-05-06 19:07 -16.87573 53.58282 37038 ft 475 kts 156°
2026-05-06 19:08 -16.93564 53.61086 37039 ft 475 kts 156°
2026-05-06 19:08 -16.99595 53.63911 37037 ft 475 kts 156°
2026-05-06 19:09 -17.05622 53.66736 37040 ft 474 kts 156°
2026-05-06 19:09 -17.11644 53.69561 37041 ft 474 kts 156°
2026-05-06 19:10 -17.17659 53.72385 37041 ft 474 kts 156°
2026-05-06 19:10 -17.23680 53.75213 37042 ft 474 kts 156°
2026-05-06 19:11 -17.29699 53.78043 37038 ft 474 kts 156°
2026-05-06 19:11 -17.35719 53.80875 37041 ft 474 kts 156°
2026-05-06 19:12 -17.41736 53.83707 37040 ft 474 kts 156°
2026-05-06 19:12 -17.47749 53.86540 37044 ft 474 kts 156°
2026-05-06 19:13 -17.53758 53.89374 37042 ft 473 kts 156°
2026-05-06 19:13 -17.59727 53.92190 37046 ft 473 kts 156°
2026-05-06 19:14 -17.65738 53.95028 37045 ft 473 kts 156°
2026-05-06 19:14 -17.71740 53.97864 37047 ft 473 kts 156°
2026-05-06 19:15 -17.77741 54.00702 37054 ft 473 kts 156°
2026-05-06 19:15 -17.80923 54.02207 37048 ft 473 kts 156°
2026-05-06 19:16 -17.83793 54.03565 37047 ft 473 kts 156°
2026-05-06 19:16 -17.89806 54.06413 37046 ft 474 kts 156°
2026-05-06 19:17 -17.95815 54.09261 37047 ft 474 kts 155°
2026-05-06 19:17 -18.01825 54.12112 37047 ft 473 kts 155°
2026-05-06 19:18 -18.07829 54.14963 37047 ft 473 kts 155°
2026-05-06 19:18 -18.13835 54.17810 37045 ft 473 kts 156°
2026-05-06 19:19 -18.19795 54.20628 37045 ft 473 kts 156°
2026-05-06 19:19 -18.25797 54.23469 37049 ft 473 kts 156°
2026-05-06 19:20 -18.31799 54.26314 37050 ft 473 kts 155°
2026-05-06 19:20 -18.37792 54.29157 37051 ft 472 kts 155°
2026-05-06 19:21 -18.43778 54.31999 37053 ft 472 kts 155°
2026-05-06 19:21 -18.48762 54.34368 37053 ft 472 kts 155°
2026-05-06 19:22 -18.54750 54.37215 37047 ft 472 kts 155°
2026-05-06 19:22 -18.60748 54.40069 37053 ft 472 kts 155°
2026-05-06 19:23 -18.66731 54.42930 37055 ft 472 kts 155°
2026-05-06 19:23 -18.72714 54.45804 37053 ft 473 kts 155°
2026-05-06 19:24 -18.78704 54.48682 37052 ft 473 kts 155°
2026-05-06 19:24 -18.84688 54.51559 37061 ft 473 kts 155°
2026-05-06 19:25 -18.90686 54.54444 37055 ft 473 kts 155°
2026-05-06 19:25 -18.94559 54.56308 37059 ft 473 kts 155°
2026-05-06 19:26 -18.96639 54.57309 37058 ft 473 kts 155°
2026-05-06 19:26 -19.02637 54.60198 37060 ft 473 kts 155°
2026-05-06 19:27 -19.08629 54.63087 37056 ft 473 kts 155°
2026-05-06 19:27 -19.14618 54.65977 37059 ft 473 kts 155°
2026-05-06 19:28 -19.20607 54.68869 37047 ft 473 kts 156°
2026-05-06 19:28 -19.26600 54.71766 37058 ft 474 kts 156°
2026-05-06 19:29 -19.32599 54.74667 37057 ft 474 kts 156°
2026-05-06 19:29 -19.38607 54.77575 37069 ft 475 kts 156°
2026-05-06 19:30 -19.44615 54.80486 37065 ft 475 kts 156°
2026-05-06 19:30 -19.50628 54.83401 37063 ft 475 kts 156°
2026-05-06 19:31 -19.56638 54.86318 37075 ft 475 kts 156°
2026-05-06 19:31 -19.65621 54.90682 37067 ft 476 kts 156°
2026-05-06 19:32 -19.71643 54.93610 37069 ft 476 kts 156°
2026-05-06 19:32 -19.77671 54.96544 37072 ft 476 kts 156°
2026-05-06 19:33 -19.83700 54.99481 37056 ft 477 kts 156°
2026-05-06 19:33 -19.89734 55.02422 37075 ft 477 kts 156°
2026-05-06 19:34 -19.95728 55.05348 37076 ft 477 kts 156°
2026-05-06 19:34 -20.01761 55.08300 37060 ft 475 kts 154°
2026-05-06 19:35 -20.04523 55.10220 37077 ft 476 kts 138°
2026-05-06 19:35 -20.06662 55.12908 37062 ft 480 kts 123°
2026-05-06 19:35 -20.07019 55.13520 37080 ft 480 kts 121°
2026-05-06 19:36 -20.08927 55.19546 37080 ft 484 kts 99°
2026-05-06 19:36 -20.09807 55.26671 37074 ft 487 kts 99°
2026-05-06 19:37 -20.10741 55.33832 37064 ft 490 kts 100°
2026-05-06 19:37 -20.11754 55.41004 37062 ft 491 kts 100°
2026-05-06 19:38 -20.12777 55.48182 37075 ft 491 kts 100°
2026-05-06 19:38 -20.13777 55.55375 37067 ft 491 kts 99°
2026-05-06 19:39 -20.14715 55.62555 37064 ft 489 kts 99°
2026-05-06 19:39 -20.15648 55.69757 36314 ft 499 kts 99°
2026-05-06 19:40 -20.16125 55.73419 35575 ft 498 kts 99°
2026-05-06 19:40 -20.16601 55.77079 34694 ft 500 kts 99°
2026-05-06 19:40 -20.17076 55.80724 33744 ft 502 kts 99°
2026-05-06 19:40 -20.17551 55.84375 32715 ft 504 kts 99°
2026-05-06 19:41 -20.18031 55.88065 31964 ft 500 kts 99°
2026-05-06 19:41 -20.18502 55.91711 31278 ft 495 kts 99°
2026-05-06 19:41 -20.18969 55.95320 30615 ft 490 kts 99°
2026-05-06 19:41 -20.19437 55.98938 29930 ft 485 kts 99°
2026-05-06 19:42 -20.19894 56.02480 29207 ft 480 kts 99°
2026-05-06 19:42 -20.20210 56.05960 28540 ft 476 kts 94°
2026-05-06 19:42 -20.20274 56.09467 27899 ft 472 kts 91°
2026-05-06 19:42 -20.20224 56.12949 27272 ft 468 kts 90°
2026-05-06 19:43 -20.20150 56.16394 26644 ft 463 kts 90°
2026-05-06 19:43 -20.20091 56.19809 26036 ft 459 kts 90°
2026-05-06 19:43 -20.20057 56.23196 25429 ft 455 kts 91°
2026-05-06 19:43 -20.20044 56.26553 24817 ft 452 kts 91°
2026-05-06 19:44 -20.20044 56.29877 24212 ft 448 kts 91°
2026-05-06 19:44 -20.20049 56.33194 23599 ft 446 kts 90°
2026-05-06 19:44 -20.20056 56.36479 22902 ft 442 kts 90°
2026-05-06 19:44 -20.20060 56.39708 22282 ft 438 kts 91°
2026-05-06 19:45 -20.20064 56.42930 21669 ft 434 kts 90°
2026-05-06 19:45 -20.20066 56.46122 21097 ft 429 kts 91°
2026-05-06 19:45 -20.20066 56.46440 21039 ft 429 kts 91°
2026-05-06 19:46 -20.20067 56.49107 20552 ft 426 kts 91°
2026-05-06 19:46 -20.20068 56.52244 19982 ft 423 kts 91°
2026-05-06 19:46 -20.20068 56.55367 19407 ft 420 kts 91°
2026-05-06 19:46 -20.20067 56.58476 18826 ft 419 kts 91°
2026-05-06 19:47 -20.20066 56.61558 18241 ft 417 kts 91°
2026-05-06 19:47 -20.20064 56.64643 17610 ft 415 kts 90°
2026-05-06 19:47 -20.20063 56.67700 17016 ft 412 kts 90°
2026-05-06 19:47 -20.20060 56.70741 16454 ft 409 kts 90°
2026-05-06 19:48 -20.20057 56.73757 15878 ft 406 kts 90°
2026-05-06 19:48 -20.20053 56.76755 15328 ft 404 kts 90°
2026-05-06 19:48 -20.20048 56.79736 14772 ft 401 kts 90°
2026-05-06 19:48 -20.20043 56.82667 14189 ft 384 kts 90°
2026-05-06 19:49 -20.20036 56.85403 13649 ft 357 kts 90°
2026-05-06 19:49 -20.20030 56.87979 13139 ft 345 kts 91°
2026-05-06 19:49 -20.20025 56.90544 12656 ft 349 kts 90°
2026-05-06 19:49 -20.20021 56.93151 12171 ft 357 kts 91°
2026-05-06 19:50 -20.20015 56.95808 11654 ft 361 kts 91°
2026-05-06 19:50 -20.20009 56.98479 11094 ft 362 kts 91°
2026-05-06 19:50 -20.20001 57.01144 10816 ft 353 kts 91°
2026-05-06 19:50 -20.19993 57.03715 10649 ft 342 kts 91°
2026-05-06 19:51 -20.19985 57.06206 10493 ft 331 kts 91°
2026-05-06 19:51 -20.19977 57.08581 10352 ft 321 kts 91°
2026-05-06 19:51 -20.19970 57.10920 10216 ft 311 kts 91°
2026-05-06 19:51 -20.19963 57.13181 10085 ft 301 kts 91°
2026-05-06 19:52 -20.19955 57.15385 9882 ft 295 kts 91°
2026-05-06 19:52 -20.19948 57.17563 9528 ft 294 kts 91°
2026-05-06 19:52 -20.19941 57.19734 9189 ft 292 kts 91°
2026-05-06 19:52 -20.19933 57.21890 8854 ft 291 kts 91°
2026-05-06 19:53 -20.19924 57.24034 8542 ft 288 kts 91°
2026-05-06 19:53 -20.19916 57.26153 8206 ft 286 kts 91°
2026-05-06 19:53 -20.20251 57.28192 7837 ft 280 kts 114°
2026-05-06 19:53 -20.21277 57.29919 7521 ft 273 kts 126°
2026-05-06 19:54 -20.22388 57.31544 7196 ft 272 kts 125°
2026-05-06 19:54 -20.23484 57.33180 6871 ft 271 kts 124°
2026-05-06 19:54 -20.24574 57.34815 6547 ft 270 kts 124°
2026-05-06 19:54 -20.25660 57.36446 6262 ft 267 kts 124°
2026-05-06 19:55 -20.26716 57.38032 6133 ft 258 kts 124°
2026-05-06 19:55 -20.27731 57.39558 5995 ft 250 kts 125°
2026-05-06 19:56 -20.28691 57.40975 5888 ft 240 kts 125°
2026-05-06 19:56 -20.29655 57.42394 5734 ft 233 kts 125°
2026-05-06 19:56 -20.30587 57.43766 5469 ft 226 kts 125°
2026-05-06 19:56 -20.31485 57.45088 5160 ft 221 kts 125°
2026-05-06 19:57 -20.32356 57.46412 4879 ft 215 kts 122°
2026-05-06 19:57 -20.33090 57.47729 4580 ft 201 kts 118°
2026-05-06 19:57 -20.33733 57.49020 4344 ft 199 kts 117°
2026-05-06 19:57 -20.34361 57.50318 4097 ft 194 kts 116°
2026-05-06 19:58 -20.34968 57.51588 3825 ft 191 kts 116°
2026-05-06 19:58 -20.35575 57.52852 3533 ft 191 kts 116°
2026-05-06 19:58 -20.36180 57.54109 3263 ft 188 kts 116°
2026-05-06 19:58 -20.36774 57.55345 2985 ft 185 kts 116°
2026-05-06 19:59 -20.37331 57.56505 2710 ft 164 kts 116°
2026-05-06 19:59 -20.37820 57.57523 2442 ft 147 kts 115°
2026-05-06 19:59 -20.38275 57.58472 2251 ft 145 kts 115°
2026-05-06 19:59 -20.38732 57.59427 2023 ft 142 kts 116°
2026-05-06 20:00 -20.39172 57.60344 1807 ft 142 kts 116°
2026-05-06 20:00 -20.39610 57.61292 1556 ft 142 kts 114°
2026-05-06 20:00 -20.40048 57.62229 1312 ft 141 kts 116°
2026-05-06 20:00 -20.40520 57.63161 1067 ft 143 kts 115°
2026-05-06 20:01 -20.40941 57.64106 839 ft 136 kts 110°
2026-05-06 20:01 -20.41390 57.65002 678 ft 143 kts 115°
2026-05-06 20:01 -20.41850 57.65964 526 ft 145 kts 112°
2026-05-06 20:01 -20.42311 57.66922 372 ft 147 kts 117°
2026-05-06 20:02 -20.42797 57.67846 220 ft 135 kts 115°
2026-05-06 20:02 -20.43169 57.68699 181 ft 119 kts 114°
2026-05-06 20:02 -20.43519 57.69448 137 ft 86 kts 119°
2026-05-06 20:02 -20.43670 57.69693 120 ft 0 kts 134°
2026-05-06 20:03 -20.43677 57.69701 119 ft 0 kts 135°
2026-05-06 20:03 -20.43689 57.69714 118 ft 0 kts 135°
2026-05-06 20:03 -20.43751 57.69762 117 ft 27 kts 156°
2026-05-06 20:03 -20.43820 57.69742 113 ft 13 kts 222°
2026-05-06 20:04 -20.43812 57.69581 122 ft 24 kts 298°
2026-05-06 20:04 -20.43717 57.69393 145 ft 26 kts 297°
2026-05-06 20:04 -20.43615 57.69176 163 ft 46 kts 298°
2026-05-06 20:04 -20.43479 57.68896 177 ft 50 kts 297°
2026-05-06 20:05 -20.43373 57.68680 181 ft 12 kts 300°
2026-05-06 20:05 -20.43278 57.68485 183 ft 46 kts 296°
2026-05-06 20:05 -20.43174 57.68259 201 ft 44 kts 296°
2026-05-06 20:05 -20.43133 57.68129 198 ft 15 kts 246°
2026-05-06 20:06 -20.43211 57.68039 203 ft 17 kts 246°
2026-05-06 20:06 -20.43241 57.67988 199 ft 2 kts 238°
2026-05-06 20:06 -20.43252 57.67968 199 ft 0 kts 237°
2026-05-06 20:06 -20.43260 57.67957 188 ft 2 kts 236°
2026-05-06 20:07 -20.43261 57.67955 187 ft 0 kts 236°